This is the latest recevied weather packets stored in our database for station/object YO3LAW-13. If no packets are shown the sender has not sent any weather packets the latest 10 day(s).
| Time | Temp. | Humidity | Pressure | Rain* | Wind** | Luminosity | Snow |
|---|---|---|---|---|---|---|---|
| 1778329439 | 16.67° C | 81% | 1003.9 hPa | 0 mm | - | - | - |
| 1778328839 | 16.67° C | 80% | 1004 hPa | 0 mm | - | - | - |
| 1778328239 | 16.67° C | 80% | 1004 hPa | 0 mm | - | - | - |
| 1778327639 | 16.67° C | 79% | 1004.1 hPa | 0 mm | - | - | - |
| 1778327039 | 16.67° C | 79% | 1004 hPa | 0 mm | - | - | - |
| 1778326439 | 16.67° C | 78% | 1003.9 hPa | 0 mm | - | - | - |
| 1778325839 | 17.22° C | 77% | 1003.9 hPa | 0 mm | - | - | - |
| 1778325239 | 17.22° C | 76% | 1003.9 hPa | 0 mm | - | - | - |
| 1778324639 | 17.78° C | 76% | 1003.8 hPa | 0 mm | - | - | - |
| 1778324039 | 18.33° C | 75% | 1004 hPa | 0 mm | - | - | - |
| 1778323439 | 17.78° C | 75% | 1004 hPa | 0 mm | - | - | - |
| 1778322839 | 17.78° C | 75% | 1004 hPa | 0 mm | - | - | - |
| 1778322239 | 17.78° C | 75% | 1003.8 hPa | 0 mm | - | - | - |
| 1778321639 | 17.22° C | 78% | 1004 hPa | 0 mm | - | - | - |
| 1778321039 | 17.22° C | 76% | 1004 hPa | 0 mm | - | - | - |
| 1778320439 | 17.22° C | 77% | 1004 hPa | 0 mm | - | - | - |
| 1778319839 | 17.22° C | 77% | 1004.3 hPa | 0 mm | - | - | - |
| 1778319238 | 17.22° C | 77% | 1004 hPa | 0 mm | - | - | - |
| 1778318639 | 17.22° C | 77% | 1004.1 hPa | 0 mm | - | - | - |
| 1778318039 | 17.22° C | 77% | 1004.4 hPa | 0 mm | - | - | - |
| 1778317439 | 17.22° C | 76% | 1004.1 hPa | 0 mm | - | - | - |
| 1778316838 | 17.22° C | 76% | 1004.1 hPa | 0 mm | - | - | - |
| 1778316239 | 17.22° C | 75% | 1004.3 hPa | 0 mm | - | - | - |
| 1778315639 | 16.67° C | 77% | 1004.4 hPa | 0 mm | - | - | - |
| 1778315039 | 16.67° C | 78% | 1004.3 hPa | 0 mm | - | - | - |
* Rain latest hour (hover to see other rain measurements)
** Current wind speed in m/s (hover to see current wind gust speed)